Andravida, Greece

9:19 AM EEST on August 26, 2016 (GMT +0300)
Andravida Air Base

Weather History for LGAD - March, 2013

Change the Weather History Date:

Monday, March 18, 2013

  Actual Average Record
Temperature  
Mean Temperature 48 °F -  
Max Temperature 55 °F 62 °F 69 °F (2001)
Min Temperature 42 °F 45 °F 32 °F (1998)
Degree Days  
Heating Degree Days 16    
Moisture  
Dew Point 39 °F    
Average Humidity 67    
Maximum Humidity 81    
Minimum Humidity 44    
Precipitation  
Precipitation 0.00 in - - ()
Sea Level Pressure  
Sea Level Pressure 30.06 in    
Wind  
Wind Speed 2 mph ()    
Max Wind Speed 8 mph    
Max Gust Speed -    
Visibility 6.2 miles    
Events      
Averages and records for this station are not official NWS values.
T = Trace of Precipitation, MM = Missing Value Source: Averaged Metar Reports

Daily Weather History Graph

Daily Weather History Graph

Search for Another Location

Airport or City:

Trip Planner

Search our weather history database for the weather conditions in past years. The results will help you decide how hot, cold, wet, or windy it might be!

Date:

Astronomy

Mar. 18, 2013 Rise Set
Actual Time 6:41 AM EET 6:44 PM EET
Civil Twilight 6:15 AM EET 7:11 PM EET
Nautical Twilight 5:44 AM EET 7:41 PM EET
Astronomical Twilight 5:13 AM EET 8:12 PM EET
Moon 10:31 AM EET (3/18) 12:23 AM EET (3/18)
Length of Visible Light 12h 55m
Length of Day
12h 03m
Waxing Crescent, 38% of the Moon is Illuminated
Mar 18
Waxing Crescent
Mar 19
First Quarter
Mar 27
Full
Apr 3
Last Quarter
Apr 10
New

Hourly Weather History & Observations

Time (EET) Temp. Windchill Dew Point Humidity Pressure Visibility Wind Dir Wind Speed Gust Speed Precip Events Conditions
12:20 AM 46.4 °F - 39.2 °F 76% 30.15 in 6.2 mi Calm Calm - N/A   Mostly Cloudy
12:50 AM 46.4 °F - 39.2 °F 76% 30.15 in 6.2 mi Calm Calm - N/A   Mostly Cloudy
1:20 AM 46.4 °F - 39.2 °F 76% 30.15 in 6.2 mi Calm Calm - N/A   Mostly Cloudy
1:50 AM 46.4 °F - 39.2 °F 76% 30.15 in 6.2 mi Calm Calm - N/A   Scattered Clouds
2:00 AM 46 °F - 39 °F 69% 30.17 in 6 mi Calm Calm - -   Scattered Clouds
2:20 AM 44.6 °F - 37.4 °F 76% 30.15 in 6.2 mi Calm Calm - N/A   Scattered Clouds
2:50 AM 44.6 °F - 37.4 °F 76% 30.15 in 6.2 mi Calm Calm - N/A   Scattered Clouds
3:50 AM 46.4 °F 43.5 °F 39.2 °F 76% 30.12 in 6.2 mi ESE 5.8 mph - N/A   Scattered Clouds
4:50 AM 44.6 °F - 37.4 °F 76% 30.12 in 6.2 mi Calm Calm - N/A   Partly Cloudy
5:20 AM 42.8 °F - 35.6 °F 76% 30.09 in 6.2 mi Calm Calm - N/A   Partly Cloudy
5:50 AM 42.8 °F - 35.6 °F 76% 30.09 in 6.2 mi Calm Calm - N/A   Partly Cloudy
6:20 AM 41.0 °F - 35.6 °F 81% 30.09 in 6.2 mi Calm Calm - N/A   Scattered Clouds
6:50 AM 42.8 °F - 35.6 °F 76% 30.09 in 6.2 mi Calm Calm - N/A   Scattered Clouds
7:20 AM 44.6 °F - 35.6 °F 71% 30.09 in 6.2 mi Calm Calm - N/A   Scattered Clouds
7:50 AM 44.6 °F - 37.4 °F 76% 30.09 in 6.2 mi Calm Calm - N/A   Mostly Cloudy
8:00 AM 45 °F - 38 °F 70% 30.12 in 6 mi Calm Calm - -   Scattered Clouds
8:20 AM 46.4 °F - 39.2 °F 76% 30.12 in 6.2 mi Calm Calm - N/A   Mostly Cloudy
8:50 AM 50.0 °F - 37.4 °F 62% 30.12 in 6.2 mi Calm Calm - N/A   Mostly Cloudy
9:20 AM 50.0 °F - 37.4 °F 62% 30.12 in 6.2 mi Calm Calm - N/A   Mostly Cloudy
9:50 AM 50.0 °F - 37.4 °F 62% 30.12 in 6.2 mi Calm Calm - N/A   Overcast
10:20 AM 51.8 °F - 39.2 °F 62% 30.12 in 6.2 mi Calm Calm - N/A   Overcast
10:50 AM 51.8 °F - 39.2 °F 62% 30.09 in 6.2 mi Calm Calm - N/A   Overcast
11:20 AM 51.8 °F - 39.2 °F 62% 30.09 in 6.2 mi Calm Calm - N/A   Overcast
11:50 AM 53.6 °F - 37.4 °F 54% 30.09 in 6.2 mi SSE 6.9 mph - N/A   Overcast
12:20 PM 53.6 °F - 39.2 °F 58% 30.09 in 6.2 mi SSE 6.9 mph - N/A   Overcast
12:50 PM 53.6 °F - 39.2 °F 58% 30.06 in 6.2 mi SSE 8.1 mph - N/A   Overcast
1:20 PM 53.6 °F - 39.2 °F 58% 30.04 in 6.2 mi ESE 8.1 mph - N/A   Overcast
1:50 PM 53.6 °F - 39.2 °F 58% 30.04 in 6.2 mi SE 5.8 mph - N/A   Overcast
2:00 PM 54 °F - 38 °F 44% 30.05 in 6 mi SE 5.8 mph - -   Overcast
2:20 PM 53.6 °F - 39.2 °F 58% 30.04 in 6.2 mi SE 5.8 mph - N/A   Overcast
2:50 PM 55.4 °F - 37.4 °F 51% 30.04 in 6.2 mi Calm Calm - N/A   Overcast
3:20 PM 55.4 °F - 37.4 °F 51% 30.04 in 6.2 mi Calm Calm - N/A   Overcast
3:50 PM 55.4 °F - 41.0 °F 58% 30.04 in 6.2 mi East 4.6 mph - N/A   Overcast
4:20 PM 55.4 °F - 41.0 °F 58% 30.04 in 6.2 mi East 4.6 mph - N/A   Overcast
4:50 PM 53.6 °F - 41.0 °F 62% 30.01 in 6.2 mi ENE 6.9 mph - N/A   Mostly Cloudy
5:20 PM 53.6 °F - 41.0 °F 62% 30.01 in 6.2 mi ENE 6.9 mph - N/A   Mostly Cloudy
5:50 PM 53.6 °F - 42.8 °F 67% 29.98 in 6.2 mi East 5.8 mph - N/A   Mostly Cloudy
6:20 PM 53.6 °F - 42.8 °F 67% 29.98 in 6.2 mi East 5.8 mph - N/A   Mostly Cloudy
6:50 PM 50.0 °F - 42.8 °F 76% 29.98 in 6.2 mi East 6.9 mph - N/A   Mostly Cloudy
7:20 PM 50.0 °F - 42.8 °F 76% 29.98 in 6.2 mi East 6.9 mph - N/A   Mostly Cloudy
7:50 PM 50.0 °F - 41.0 °F 71% 29.95 in 6.2 mi SE 6.9 mph - N/A   Scattered Clouds
8:00 PM 50 °F - 42 °F 65% 29.96 in 6 mi SE 6.9 mph - -   Scattered Clouds
8:20 PM 50.0 °F - 41.0 °F 71% 29.95 in 6.2 mi SE 6.9 mph - N/A   Scattered Clouds
8:50 PM 51.8 °F - 39.2 °F 62% 29.95 in 6.2 mi SSE 4.6 mph - N/A   Scattered Clouds
9:20 PM 51.8 °F - 39.2 °F 62% 29.95 in 6.2 mi Calm Calm - N/A   Mostly Cloudy
9:50 PM 51.8 °F - 39.2 °F 62% 29.95 in 6.2 mi ESE 4.6 mph - N/A   Mostly Cloudy
10:20 PM 51.8 °F - 39.2 °F 62% 29.95 in 6.2 mi ESE 4.6 mph - N/A   Mostly Cloudy
10:50 PM 50.0 °F - 41.0 °F 71% 29.95 in 6.2 mi Calm Calm - N/A   Mostly Cloudy
11:20 PM 50.0 °F - 41.0 °F 71% 29.95 in 6.2 mi Calm Calm - N/A   Mostly Cloudy